Wind_Speed
40 42 43 40 35 34 33 30 28 29 30 27 20 19 19 18 18 15 17 20 20 19 16 22 23 26 27 29 32 23 32 34 33 36 35 33 39 35 35 26 32 53 58 59 65 57 50 46 46 42 47 44 44 56
38 40 42 42 37 33 33 31 28 27 28 28 27 20 20 23 22 21 19 22 24 25 21 22 24 27 31 31 33 27 32 31 31 34 37 34 39 36 30 29 27 46 42 49 52 56 53 30 40 48 48 50 56 56
39 38 41 42 40 34 32 32 30 28 27 28 26 25 20 21 25 25 23 25 26 27 23 20 20 24 25 25 26 31 30 34 38 34 30 32 36 30 26 19 20 32 42 49 53 59 58 46 42 58 53 53 58 51
38 37 39 41 41 37 33 31 30 29 27 27 27 25 24 22 23 27 26 26 26 28 25 11 17 15 14 17 20 23 24 29 34 36 30 31 29 24 25 20 16 28 38 43 57 64 61 49 51 37 46 56 60 51
38 36 37 39 41 39 34 31 31 30 27 27 27 27 25 24 23 24 26 27 24 26 26 16 16 16 18 20 20 22 20 21 29 33 37 35 27 26 22 21 20 19 24 39 39 45 57 47 17 28 20 49 40 53
38 37 36 37 40 40 35 31 30 30 29 27 26 26 26 26 24 24 22 27 23 24 26 17 15 14 15 11 12 17 17 18 21 22 28 32 27 25 22 20 18 18 18 25 32 39 51 34 23 11 20 25 31 41
37 37 36 35 38 41 38 32 30 29 29 28 27 26 26 26 23 22 22 25 26 27 27 20 17 14 13 13 12 12 10 10 14 17 16 24 23 25 24 17 21 25 9 19 28 27 24 35 32 19 17 21 21 16
38 37 37 36 36 40 38 34 30 30 28 28 27 26 26 25 24 21 23 20 29 27 25 23 19 19 19 18 15 14 9 7 5 6 8 12 19 20 15 8 22 32 17 25 24 29 21 26 33 28 23 15 11 23
40 37 36 38 37 39 38 33 30 30 28 28 28 27 25 25 24 18 22 23 25 30 28 25 22 22 24 24 22 15 14 18 18 16 17 20 22 22 16 17 22 37 28 29 29 24 19 16 16 23 26 22 22 17
40 37 37 38 38 38 38 34 29 29 28 28 28 27 26 24 25 24 20 22 23 29 29 26 24 21 22 24 21 17 18 17 20 20 21 24 23 17 18 16 18 38 33 34 30 28 26 22 19 19 18 19 22 25
39 37 37 38 39 38 38 35 31 28 29 28 26 26 27 26 25 24 22 20 19 21 29 28 23 18 21 20 20 21 22 22 20 18 21 17 11 13 15 15 16 20 30 37 38 37 35 32 30 25 23 25 28 29
39 37 38 38 39 38 37 35 32 29 29 28 26 25 25 27 25 24 21 21 20 17 23 27 25 21 14 16 19 23 23 23 20 21 23 20 18 21 19 17 18 19 21 19 21 28 31 34 32 30 28 27 31 35
40 39 39 40 40 38 37 34 32 30 29 28 27 25 26 26 26 24 22 21 20 16 19 25 26 21 18 17 18 20 21 24 27 26 24 21 21 21 22 21 20 20 20 18 19 22 26 29 33 31 32 33 31 32
40 41 41 41 39 37 36 34 32 31 30 28 27 25 25 25 25 24 22 20 19 17 16 19 24 23 20 18 18 19 21 21 23 21 17 18 18 18 18 15 16 17 19 19 19 19 24 29 32 32 33 31 30 30
42 42 42 41 37 36 35 34 33 32 31 29 29 25 25 27 24 24 23 20 18 17 14 14 19 25 24 24 22 22 23 23 21 18 16 15 14 14 15 15 16 16 17 16 16 15 15 20 24 27 28 29 28 29
42 42 42 40 38 36 35 33 34 33 32 32 28 23 27 26 24 23 24 20 18 17 15 14 17 21 25 28 29 29 30 30 28 24 20 17 14 11 13 13 14 15 15 14 14 14 15 15 16 19 21 24 30 34
42 42 41 40 39 37 36 35 35 35 36 33 25 23 29 27 25 24 23 22 18 17 14 11 14 16 15 22 27 29 28 26 25 24 22 19 17 15 15 17 18 19 18 17 17 18 19 20 22 23 24 24 25 25
43 43 42 41 41 39 39 39 38 39 37 32 31 25 29 28 27 25 24 24 20 17 15 13 12 12 11 12 14 17 21 22 23 22 22 21 21 21 21 21 22 23 23 24 23 23 22 22 22 22 22 23 24 25
46 45 45 45 45 44 43 43 43 42 39 36 35 32 31 30 29 27 26 25 23 19 15 15 15 12 11 10 12 12 12 12 13 16 21 23 25 26 27 27 27 28 28 28 27 27 27 27 27 27 27 27 28 28
49 49 48 48 49 49 49 47 46 47 42 41 39 38 36 34 32 30 28 27 26 25 22 20 14 13 15 14 13 11 11 11 11 11 11 13 16 21 24 28 31 33 34 34 34 34 34 34 33 33 32 32 32 31
51 51 53 53 55 56 55 53 52 51 50 48 45 45 44 38 34 32 30 29 28 27 21 19 21 19 17 16 13 12 12 10 11 13 11 10 9 9 11 13 17 21 23 23 22 21 21 20 20 19 19 19 20 20
56 58 59 61 62 65 62 59 59 58 56 54 53 52 52 47 38 35 35 33 30 25 23 22 25 25 21 20 19 16 15 12 9 11 13 11 9 6 6 7 8 9 12 15 16 15 14 13 13 13 14 14 15 16
62 62 62 63 62 64 59 55 54 50 49 45 47 49 50 47 41 37 36 32 29 26 25 27 30 30 25 24 23 22 21 19 16 14 13 13 12 10 9 7 6 7 7 8 9 10 11 12 13 12 12 12 13 14
49 48 47 47 47 46 43 38 37 36 37 37 40 37 37 39 40 39 36 34 30 26 31 29 29 29 26 27 28 27 24 22 21 20 19 17 15 13 11 10 8 8 8 8 9 10 11 11 11 12 12 11 10 11
33 31 33 32 29 27 26 25 13 12 14 21 28 36 26 22 35 40 37 37 31 32 32 28 24 26 27 28 29 31 31 29 26 24 23 22 20 19 18 16 15 14 13 12 11 11 11 11 13 14 14 14 13 14
12 18 17 9 7 9 12 16 22 20 16 13 11 26 32 23 24 34 40 36 33 33 30 29 26 25 25 27 29 28 28 28 28 28 28 28 28 28 27 27 26 25 24 23 21 19 18 17 16 16 15 16 16 17
7 6 8 10 10 8 9 10 25 28 30 24 17 16 20 27 26 29 36 36 34 32 30 30 26 24 23 24 25 27 26 26 26 26 26 26 26 25 24 24 24 24 24 24 25 27 29 29 28 28 26 23 22 21
11 14 14 18 21 13 14 15 15 12 19 20 18 18 20 23 26 34 34 36 34 32 30 31 27 24 24 23 23 23 22 23 23 22 21 20 19 18 17 16 15 16 16 16 17 18 20 22 24 25 27 29 30 31
15 17 12 13 17 14 17 22 22 21 19 17 21 27 29 30 34 35 35 32 33 32 30 32 30 28 27 26 25 23 23 22 22 21 20 19 18 16 15 14 13 12 12 12 11 11 11 12 12 13 15 17 21 25
14 12 9 10 12 12 15 22 30 26 23 23 26 27 28 33 31 27 29 31 29 29 31 33 32 31 30 28 28 27 26 24 23 21 20 19 19 17 16 15 15 15 15 14 14 14 14 15 15 16 17 18 19 20
19 19 19 18 16 14 12 16 23 26 24 25 26 22 21 21 22 27 30 30 28 28 31 33 34 33 32 32 31 30 28 26 25 24 23 21 20 19 18 17 17 18 18 17 17 16 16 16 16 16 17 18 20 21
25 26 25 22 20 17 13 17 25 25 20 20 23 21 20 18 20 25 29 29 27 29 32 34 36 36 35 35 34 32 31 30 29 28 26 25 23 22 21 20 20 20 21 20 20 19 18 18 18 19 20 20 21 22
21 21 21 20 19 18 16 23 28 28 23 20 19 22 23 24 25 25 25 26 26 28 31 34 35 36 36 35 35 35 34 34 32 31 29 28 26 24 24 23 22 22 22 22 21 20 20 21 22 22 23 24 24 24
Wind_Direction
337 339 342 342 340 342 346 351 351 349 347 345 325 290 272 261 259 260 258 268 275 291 297 296 297 299 293 282 274 265 262 254 255 255 256 256 262 265 266 265 243 237 241 248 252 255 245 221 214 235 243 233 245 241
332 335 337 339 337 336 339 343 346 346 345 341 338 320 285 271 260 254 258 261 273 287 309 309 312 303 288 283 277 261 251 250 248 244 247 252 260 263 269 269 246 224 237 240 242 247 238 231 226 229 239 238 239 240
327 332 333 335 335 332 332 336 340 341 341 340 337 331 312 282 266 257 253 257 264 274 292 305 300 282 286 284 276 269 263 254 249 248 250 250 258 265 266 266 249 233 233 244 240 238 239 245 243 247 247 244 247 253
322 326 329 331 332 329 327 330 334 337 336 336 337 331 321 303 279 264 257 253 263 277 291 290 288 285 287 291 281 281 269 257 247 245 239 242 248 255 264 248 237 227 232 237 235 231 240 252 255 239 242 240 241 243
317 321 325 327 328 327 324 324 328 331 333 331 332 331 323 314 293 275 261 254 261 273 283 277 274 285 286 295 278 277 273 264 259 248 242 245 238 245 247 244 238 225 227 231 239 237 241 235 233 220 212 227 229 229
314 315 320 324 325 324 322 320 321 325 328 328 326 328 325 319 306 287 266 251 253 258 274 270 261 282 294 299 294 292 278 267 264 255 252 245 237 244 250 252 226 231 227 247 239 221 224 238 243 204 203 178 203 226
309 311 314 318 321 321 320 317 317 320 323 326 324 323 325 321 318 300 280 248 247 253 266 265 246 266 279 295 283 300 304 263 264 260 258 249 244 242 250 240 223 216 210 218 237 244 220 246 251 241 187 217 209 198
305 307 310 313 317 317 318 316 315 315 319 321 323 321 321 321 320 310 295 268 246 248 259 264 254 242 259 265 276 271 278 289 277 233 225 227 240 248 268 239 226 216 206 196 199 214 226 246 258 256 250 253 258 217
302 303 306 309 313 314 314 313 312 312 315 318 320 320 318 319 317 314 298 284 257 248 251 256 262 254 253 266 271 274 261 277 278 274 268 268 275 277 296 268 237 212 207 194 200 205 212 211 227 240 247 255 260 261
299 300 303 306 308 310 310 309 309 309 311 313 317 318 316 315 315 315 309 295 275 250 248 250 257 261 258 262 269 263 239 236 255 258 269 279 280 274 269 252 240 216 214 215 219 226 231 237 231 239 245 256 251 257
295 297 299 302 303 305 305 305 305 305 307 309 313 315 314 311 312 316 314 303 292 267 246 245 248 258 260 259 257 245 242 242 241 250 256 255 231 246 250 252 243 225 224 229 233 235 239 239 238 238 231 242 245 242
292 292 294 297 299 300 300 301 301 302 303 305 309 310 310 307 307 309 313 305 299 279 250 245 247 244 249 246 241 235 231 235 240 246 249 247 249 244 250 253 252 260 258 251 248 244 242 235 233 229 233 242 243 244
289 289 291 294 295 295 295 296 297 298 300 302 302 306 307 307 306 307 312 309 302 289 275 248 245 244 247 244 237 235 240 241 248 254 255 253 252 254 258 258 257 256 257 257 254 239 230 224 222 223 230 227 229 235
286 287 289 290 291 291 290 291 292 294 295 296 296 301 302 305 305 305 305 306 301 294 287 263 246 243 238 236 239 241 243 245 245 249 248 244 243 245 249 248 246 246 248 251 252 238 228 225 223 224 227 232 239 243
284 284 285 286 287 286 287 287 287 288 289 290 292 298 299 296 305 303 300 300 298 293 284 272 257 245 241 237 236 242 245 246 246 251 254 255 248 242 234 231 227 228 231 231 222 209 221 224 228 232 237 240 239 238
281 282 284 285 284 283 283 283 283 283 285 286 291 295 286 292 298 300 296 292 292 289 285 274 263 260 250 245 242 241 244 248 252 258 255 252 248 239 226 220 229 227 213 205 201 198 203 212 220 225 234 242 247 245
280 282 283 284 282 281 280 279 279 280 280 287 293 277 279 283 288 292 293 285 280 279 275 263 268 268 254 249 247 246 245 248 249 251 250 245 237 230 222 219 218 222 225 225 228 230 229 228 228 230 231 233 236 238
282 283 283 282 280 278 277 276 275 276 279 281 282 275 272 277 279 282 286 282 270 268 261 260 263 265 258 255 253 248 247 244 244 241 240 235 228 225 224 221 220 222 223 224 225 227 228 228 227 227 226 225 224 222
283 283 282 280 278 276 273 272 272 273 275 273 272 272 268 270 272 274 275 278 269 256 247 247 250 252 253 246 234 243 239 234 231 230 229 231 230 226 221 222 223 224 224 225 226 227 228 229 229 230 231 232 233 234
280 279 276 274 272 270 269 268 268 268 268 267 264 267 265 264 263 266 267 269 269 257 252 248 237 239 242 237 239 244 228 225 231 233 233 235 234 233 232 230 228 228 230 231 233 234 236 237 240 240 241 241 241 241
276 275 274 274 273 272 270 270 269 268 266 263 260 261 264 261 256 256 258 260 262 265 251 241 233 233 233 234 230 220 211 215 225 224 228 222 216 219 227 234 236 236 235 236 239 242 245 245 244 241 239 237 236 234
280 278 277 276 275 274 273 272 270 268 265 262 259 255 256 259 254 250 249 251 254 258 242 233 231 231 228 228 228 220 214 212 205 204 204 203 200 203 212 213 208 210 215 219 220 220 220 218 212 212 211 214 215 216
278 277 274 272 271 271 273 270 269 266 262 255 249 246 247 247 246 241 243 244 246 247 234 225 228 232 228 224 226 226 223 220 218 214 212 212 214 214 210 201 193 190 189 191 196 201 201 195 202 204 201 207 212 214
276 272 269 268 267 267 268 265 266 263 256 247 237 234 237 237 231 229 235 239 239 237 230 228 230 233 227 225 224 226 226 226 225 224 222 220 217 216 213 210 209 209 206 200 196 195 196 203 210 215 213 214 218 221
270 266 262 264 264 263 260 252 224 244 252 247 229 221 220 226 225 224 224 231 230 233 234 228 230 230 227 226 225 227 229 230 231 232 230 227 227 227 227 227 229 230 229 228 226 224 223 222 221 220 222 224 225 224
235 237 243 232 212 236 240 222 197 187 194 212 221 212 208 206 225 224 223 221 222 226 228 223 222 225 224 225 225 228 232 235 237 239 239 238 237 239 241 242 242 242 243 242 240 238 237 237 237 237 236 236 235 234
224 190 180 211 253 261 222 214 203 197 200 197 188 188 202 209 208 214 216 217 217 221 223 218 215 220 220 221 222 224 227 230 232 233 233 234 234 234 235 236 236 237 239 239 239 241 244 245 246 247 247 246 243 241
242 240 251 251 269 235 196 183 182 206 222 220 211 204 209 208 215 219 219 214 215 217 217 213 208 212 214 215 217 219 219 220 221 221 220 219 218 217 215 214 216 220 224 227 231 234 237 240 243 246 246 246 246 247
242 269 262 221 201 208 200 197 191 184 185 194 195 202 204 202 211 216 217 213 215 217 215 210 203 205 207 208 208 207 204 202 201 200 199 198 198 199 203 206 209 212 215 220 226 231 236 238 238 240 244 246 249 251
248 235 224 229 226 237 233 218 208 199 196 194 194 197 202 208 211 214 209 209 211 208 210 209 202 202 203 204 204 202 200 199 200 202 203 204 207 213 217 222 228 232 236 239 241 244 246 248 251 253 256 258 258 260
249 243 242 248 261 269 273 234 211 201 206 207 195 190 192 195 204 212 210 212 212 205 207 206 203 202 203 203 203 202 203 204 206 207 210 214 218 224 230 236 241 245 248 250 251 253 255 257 258 261 263 264 265 267
253 255 256 256 262 264 260 215 195 183 177 185 197 188 184 192 207 208 211 213 210 208 209 209 206 204 204 205 206 207 208 209 211 215 218 222 227 233 239 245 249 251 248 248 249 250 255 259 261 265 267 270 272 272
262 260 254 240 237 238 224 199 192 198 184 181 187 195 197 203 210 207 206 207 206 207 210 211 209 207 207 207 209 211 212 214 217 221 226 231 236 241 246 249 249 250 248 245 245 246 250 254 257 261 267 272 275 277
Height
5506 5499 5492 5483 5476 5470 5464 5458 5452 5446 5440 5435 5431 5428 5427 5425 5424 5424 5425 5422 5421 5418 5418 5418 5417 5414 5414 5412 5411 5417 5413 5413 5413 5412 5412 5413 5411 5415 5413 5416 5418 5423 5426 5429 5436 5442 5451 5465 5468 5482 5486 5491 5490 5498
5502 5495 5488 5481 5473 5467 5460 5455 5449 5444 5438 5432 5427 5423 5421 5419 5418 5417 5418 5416 5414 5409 5409 5409 5409 5406 5402 5401 5399 5401 5400 5402 5402 5402 5403 5405 5404 5407 5407 5403 5406 5409 5419 5426 5431 5436 5450 5455 5459 5466 5472 5478 5480 5486
5497 5490 5483 5476 5470 5463 5457 5451 5446 5441 5435 5430 5424 5419 5415 5413 5411 5410 5410 5409 5406 5404 5404 5402 5403 5398 5396 5394 5391 5387 5390 5393 5391 5394 5397 5397 5396 5400 5399 5398 5397 5402 5410 5413 5420 5431 5439 5446 5451 5456 5457 5463 5471 5476
5490 5484 5478 5471 5465 5458 5452 5447 5442 5437 5431 5426 5420 5415 5410 5406 5404 5402 5402 5401 5399 5397 5395 5398 5395 5393 5391 5387 5384 5382 5383 5382 5384 5386 5386 5387 5390 5393 5392 5393 5394 5399 5404 5411 5417 5425 5433 5440 5445 5440 5443 5450 5456 5463
5482 5476 5470 5465 5459 5453 5447 5442 5437 5432 5427 5422 5416 5411 5405 5401 5397 5395 5394 5394 5393 5391 5389 5390 5389 5388 5385 5382 5379 5378 5377 5376 5375 5376 5377 5379 5385 5386 5387 5387 5389 5394 5399 5404 5413 5419 5424 5437 5431 5432 5428 5438 5444 5451
5474 5468 5463 5458 5452 5446 5441 5436 5431 5427 5422 5417 5412 5406 5401 5395 5391 5387 5387 5387 5387 5385 5382 5383 5384 5383 5380 5378 5376 5373 5370 5369 5369 5369 5371 5374 5379 5380 5380 5382 5387 5389 5392 5398 5404 5410 5421 5422 5421 5423 5427 5429 5435 5439
5464 5460 5455 5450 5444 5439 5434 5429 5425 5421 5416 5412 5407 5402 5396 5391 5386 5381 5380 5380 5379 5379 5376 5377 5378 5378 5376 5375 5373 5370 5366 5365 5365 5364 5366 5369 5373 5373 5374 5377 5381 5381 5384 5390 5397 5403 5408 5410 5413 5416 5419 5424 5429 5434
5455 5450 5446 5441 5436 5431 5426 5422 5418 5414 5410 5406 5401 5397 5392 5386 5381 5376 5372 5372 5372 5372 5371 5370 5371 5372 5372 5371 5369 5368 5366 5365 5364 5364 5365 5366 5368 5368 5369 5372 5372 5374 5378 5384 5389 5395 5400 5403 5406 5410 5413 5417 5421 5429
5445 5441 5436 5432 5427 5422 5418 5414 5411 5406 5403 5399 5395 5391 5387 5381 5376 5373 5368 5364 5363 5365 5364 5364 5364 5365 5366 5365 5364 5364 5363 5363 5363 5363 5362 5362 5362 5361 5364 5365 5366 5368 5373 5377 5382 5387 5391 5397 5401 5406 5410 5415 5418 5423
5433 5430 5426 5422 5418 5413 5409 5405 5402 5398 5395 5392 5389 5385 5381 5377 5371 5367 5363 5358 5355 5354 5356 5358 5358 5358 5359 5359 5359 5360 5359 5357 5357 5358 5358 5357 5356 5357 5357 5360 5360 5362 5365 5370 5375 5381 5385 5390 5394 5399 5404 5409 5413 5416
5421 5419 5415 5411 5408 5403 5399 5396 5394 5391 5387 5385 5382 5378 5374 5370 5366 5361 5356 5353 5350 5349 5348 5351 5352 5352 5352 5353 5353 5353 5353 5353 5353 5353 5353 5352 5353 5353 5353 5355 5357 5361 5364 5367 5370 5373 5378 5383 5388 5393 5398 5402 5405 5409
5408 5406 5404 5401 5397 5392 5389 5386 5385 5382 5379 5377 5374 5371 5368 5363 5359 5357 5352 5349 5345 5343 5342 5344 5345 5346 5347 5347 5347 5347 5347 5347 5348 5348 5348 5349 5349 5348 5349 5351 5352 5353 5356 5358 5360 5363 5368 5373 5379 5384 5388 5393 5397 5400
5395 5394 5391 5389 5386 5382 5379 5377 5375 5373 5370 5368 5366 5364 5360 5358 5353 5350 5346 5343 5340 5337 5336 5336 5338 5339 5340 5341 5341 5342 5342 5343 5342 5343 5343 5345 5344 5344 5344 5345 5347 5348 5349 5350 5352 5355 5359 5364 5370 5375 5378 5381 5385 5389
5382 5380 5378 5375 5374 5371 5369 5367 5365 5363 5361 5359 5357 5356 5353 5350 5347 5344 5341 5338 5336 5332 5331 5330 5331 5332 5333 5335 5335 5336 5337 5338 5338 5338 5339 5340 5341 5340 5341 5342 5343 5344 5345 5347 5349 5351 5355 5359 5363 5367 5371 5374 5377 5380
5368 5366 5365 5362 5361 5359 5357 5356 5354 5353 5351 5350 5348 5348 5347 5342 5340 5338 5335 5332 5330 5328 5326 5325 5325 5326 5326 5328 5329 5330 5331 5331 5333 5334 5335 5335 5336 5337 5338 5339 5340 5342 5343 5344 5346 5347 5350 5353 5356 5359 5362 5365 5368 5372
5353 5352 5350 5348 5347 5346 5345 5344 5342 5341 5340 5339 5339 5340 5337 5335 5334 5331 5329 5326 5324 5323 5322 5321 5320 5319 5319 5320 5321 5323 5324 5325 5327 5328 5329 5330 5331 5333 5334 5335 5337 5339 5341 5342 5344 5346 5349 5351 5354 5356 5359 5362 5365 5367
5336 5337 5335 5334 5333 5332 5331 5331 5329 5329 5327 5329 5331 5330 5327 5327 5326 5324 5322 5320 5319 5318 5317 5316 5315 5314 5314 5313 5314 5314 5316 5318 5318 5320 5323 5325 5327 5328 5330 5332 5334 5335 5337 5339 5341 5343 5346 5348 5351 5353 5355 5358 5360 5363
5321 5320 5319 5318 5318 5318 5317 5316 5316 5315 5317 5319 5319 5321 5317 5318 5317 5316 5315 5314 5312 5312 5312 5312 5311 5310 5309 5309 5309 5309 5309 5310 5311 5313 5315 5318 5320 5323 5325 5327 5329 5331 5333 5334 5336 5339 5341 5343 5345 5347 5350 5353 5355 5358
5304 5304 5303 5301 5301 5302 5302 5302 5301 5301 5305 5306 5307 5307 5307 5307 5308 5307 5307 5306 5305 5305 5305 5305 5305 5306 5307 5305 5305 5304 5304 5304 5305 5306 5308 5310 5313 5316 5319 5321 5324 5326 5328 5330 5332 5334 5336 5339 5341 5343 5345 5348 5350 5352
5287 5287 5286 5284 5282 5282 5283 5286 5286 5285 5290 5291 5292 5293 5293 5295 5296 5297 5297 5297 5297 5296 5297 5299 5301 5302 5302 5302 5302 5302 5302 5302 5303 5303 5304 5306 5307 5308 5310 5313 5316 5318 5321 5323 5325 5327 5330 5332 5334 5336 5338 5340 5342 5344
5268 5267 5265 5264 5261 5262 5263 5267 5268 5270 5271 5273 5276 5277 5278 5281 5283 5286 5287 5287 5287 5288 5290 5292 5293 5295 5297 5298 5299 5299 5300 5300 5300 5301 5302 5303 5304 5306 5307 5308 5309 5311 5314 5316 5318 5320 5323 5325 5327 5329 5331 5333 5335 5337
5247 5244 5242 5239 5239 5235 5240 5245 5245 5246 5249 5252 5254 5258 5261 5265 5269 5273 5275 5276 5278 5281 5282 5284 5285 5287 5290 5293 5295 5296 5297 5298 5299 5299 5301 5302 5303 5304 5305 5306 5307 5308 5310 5312 5314 5317 5319 5321 5323 5325 5327 5329 5331 5334
5220 5219 5215 5212 5212 5208 5215 5217 5218 5222 5224 5231 5233 5236 5242 5248 5253 5258 5261 5266 5269 5271 5273 5274 5276 5279 5283 5286 5289 5291 5293 5295 5296 5298 5299 5300 5302 5303 5305 5306 5307 5308 5309 5310 5312 5314 5317 5319 5321 5323 5325 5327 5329 5331
5194 5193 5192 5190 5190 5191 5194 5198 5199 5201 5204 5210 5216 5221 5227 5233 5238 5243 5250 5255 5259 5262 5262 5265 5268 5270 5275 5278 5282 5285 5288 5290 5292 5294 5296 5298 5299 5301 5303 5304 5305 5307 5308 5310 5311 5313 5315 5317 5319 5321 5323 5325 5327 5329
5178 5177 5177 5177 5179 5181 5183 5186 5189 5193 5195 5197 5202 5209 5216 5222 5226 5231 5238 5243 5248 5250 5253 5257 5261 5263 5266 5270 5274 5277 5280 5284 5287 5289 5291 5294 5295 5297 5299 5301 5303 5304 5306 5308 5309 5311 5313 5315 5317 5319 5321 5323 5325 5327
5168 5170 5171 5172 5174 5176 5177 5179 5183 5186 5190 5193 5195 5200 5207 5213 5217 5221 5225 5232 5237 5241 5246 5249 5253 5256 5259 5262 5266 5269 5273 5276 5279 5282 5284 5287 5289 5291 5293 5295 5297 5299 5301 5303 5305 5307 5309 5311 5312 5314 5316 5318 5321 5323
5164 5165 5167 5169 5170 5171 5173 5174 5177 5180 5184 5187 5191 5195 5200 5204 5208 5211 5216 5222 5228 5233 5237 5241 5245 5249 5252 5256 5259 5262 5266 5269 5272 5274 5277 5279 5281 5283 5285 5287 5289 5291 5293 5295 5297 5299 5302 5304 5306 5308 5310 5312 5315 5317
5161 5162 5164 5165 5166 5167 5168 5170 5173 5176 5177 5181 5185 5190 5193 5196 5201 5204 5208 5214 5219 5225 5229 5234 5238 5242 5246 5249 5253 5256 5259 5263 5266 5268 5271 5273 5276 5278 5280 5281 5283 5285 5287 5289 5291 5292 5294 5296 5298 5300 5302 5304 5306 5308
5157 5158 5157 5158 5160 5162 5163 5165 5165 5168 5171 5175 5178 5181 5186 5189 5192 5196 5202 5208 5212 5218 5222 5226 5231 5235 5239 5243 5247 5251 5254 5258 5261 5265 5267 5270 5273 5275 5277 5279 5281 5283 5284 5286 5287 5289 5290 5292 5293 5294 5295 5296 5297 5299
5153 5154 5154 5155 5156 5157 5159 5160 5162 5164 5166 5169 5172 5175 5179 5183 5187 5192 5197 5202 5206 5210 5215 5220 5224 5229 5234 5238 5242 5246 5250 5254 5257 5261 5264 5267 5269 5271 5274 5275 5277 5279 5280 5282 5283 5285 5286 5287 5288 5289 5289 5290 5291 5292
5147 5148 5149 5150 5150 5151 5152 5153 5156 5159 5163 5165 5169 5172 5175 5179 5183 5187 5191 5196 5200 5204 5209 5213 5218 5222 5227 5232 5236 5241 5245 5249 5252 5256 5259 5261 5264 5267 5269 5270 5272 5273 5275 5276 5277 5278 5279 5280 5281 5282 5282 5283 5283 5283
5140 5140 5142 5142 5144 5145 5146 5147 5151 5155 5159 5163 5166 5169 5172 5175 5179 5182 5186 5190 5194 5199 5203 5207 5211 5215 5220 5225 5230 5234 5239 5242 5246 5249 5253 5256 5258 5260 5262 5264 5265 5267 5268 5269 5270 5272 5273 5274 5274 5275 5275 5275 5275 5274
5130 5129 5130 5132 5135 5138 5140 5143 5147 5151 5154 5159 5162 5165 5168 5172 5175 5178 5181 5185 5189 5193 5196 5200 5204 5208 5213 5217 5222 5227 5231 5235 5239 5242 5245 5248 5251 5253 5255 5256 5258 5259 5260 5262 5263 5265 5266 5267 5268 5268 5268 5268 5267 5266